User: anonymous   Login
Location: Medlow Airstrip Trail, Medlow Bath NSW 2780, Australia
(33.6682°S, 150.3233°E)
Time: 05:58:36
(UTC+11:00)
Language:

Tiros 1 despin weight - Orbit

View from above orbital plane
View from above orbital plane
View from above satellite
View from above satellite

Ground track
Ground track

The orbit data is extracted from the following two-line orbital elements,

1   115U 60002D   19290.64786744  .00000082  00000-0  36809-4 0  9992
2   115  48.1683   6.5158 0035191 254.4145 105.2882 14.83491948176773
Epoch (UTC): 17 October 2019 15:32:55
Eccentricity: 0.0035191
inclination: 48.1683°
perigee height: 594 km
apogee height: 643 km
right ascension of ascending node: 6.5158°
argument of perigee: 254.4145°
revolutions per day: 14.83491948
mean anomaly at epoch: 105.2882°
orbit number at epoch: 17677

The dashed part of the orbit path shows where the satellite is in the earth's shadow,  

DLR